TimeEST,TemperatureF,Dew PointF,Humidity,Sea Level PressureIn,VisibilityMPH,Wind Direction,Wind SpeedMPH,Gust SpeedMPH,PrecipitationIn,Events,Conditions,WindDirDegrees,DateUTC
12:20 AM,37.4,33.8,87,30.02,0.2,Calm,Calm,-,0.00,Fog,Fog,0,2012-12-08 05:20:00
12:34 AM,37.4,35.6,93,30.02,0.5,Calm,Calm,-,0.00,Fog,Fog,0,2012-12-08 05:34:00
12:53 AM,37.9,35.1,89,30.03,0.5,Calm,Calm,-,0.00,Fog,Fog,0,2012-12-08 05:53:00
1:28 AM,37.4,35.6,93,30.01,0.2,Calm,Calm,-,N/A,Fog,Fog,0,2012-12-08 06:28:00
1:39 AM,37.4,35.6,93,30.01,0.2,Calm,Calm,-,N/A,Fog,Fog,0,2012-12-08 06:39:00
1:49 AM,37.4,35.6,93,30.01,0.5,Calm,Calm,-,N/A,Fog,Fog,0,2012-12-08 06:49:00
1:53 AM,37.9,36.0,93,30.03,0.5,Calm,Calm,-,N/A,Fog,Fog,0,2012-12-08 06:53:00
2:13 AM,37.4,35.6,93,30.01,1.2,Calm,Calm,-,N/A,,Overcast,0,2012-12-08 07:13:00
2:41 AM,37.4,35.6,93,30.01,0.8,Calm,Calm,-,0.01,Rain,Light Rain,0,2012-12-08 07:41:00
2:53 AM,37.9,36.0,93,30.02,0.5,Calm,Calm,-,0.01,Fog-Rain,Light Rain,0,2012-12-08 07:53:00
3:01 AM,37.4,35.6,93,30.00,1.0,Calm,Calm,-,0.01,Rain,Light Rain,0,2012-12-08 08:01:00
3:09 AM,37.4,35.6,93,29.99,1.2,Calm,Calm,-,0.01,Rain,Light Rain,0,2012-12-08 08:09:00
3:21 AM,37.4,35.6,93,30.00,1.8,Calm,Calm,-,0.01,Rain,Light Rain,0,2012-12-08 08:21:00
3:23 AM,37.4,35.6,93,30.00,2.0,Calm,Calm,-,0.01,Rain,Light Rain,0,2012-12-08 08:23:00
3:34 AM,37.4,35.6,93,29.99,2.0,Calm,Calm,-,0.02,Rain,Light Rain,0,2012-12-08 08:34:00
3:45 AM,37.4,35.6,93,30.00,2.5,Calm,Calm,-,0.03,Rain,Light Rain,0,2012-12-08 08:45:00
3:53 AM,37.9,35.1,89,30.01,2.5,Calm,Calm,-,0.03,Rain,Light Rain,0,2012-12-08 08:53:00
4:53 AM,37.9,35.1,89,29.98,2.5,Calm,Calm,-,0.06,Rain,Light Rain,0,2012-12-08 09:53:00
5:04 AM,37.4,35.6,93,29.97,3.0,NNE,3.5,-,0.01,Rain,Light Rain,20,2012-12-08 10:04:00
5:16 AM,37.4,35.6,93,29.96,4.0,Calm,Calm,-,0.02,Rain,Light Rain,0,2012-12-08 10:16:00
5:31 AM,37.4,35.6,93,29.97,4.0,NNW,3.5,-,0.02,Rain,Light Rain,330,2012-12-08 10:31:00
5:53 AM,37.9,35.1,89,29.98,2.5,Calm,Calm,-,0.04,Rain,Light Rain,0,2012-12-08 10:53:00
6:06 AM,37.4,35.6,93,29.96,3.0,NNE,3.5,-,0.00,Rain,Light Rain,20,2012-12-08 11:06:00
6:19 AM,37.4,35.6,93,29.96,3.0,North,4.6,-,0.00,Rain,Light Rain,10,2012-12-08 11:19:00
6:31 AM,37.4,35.6,93,29.96,2.5,NNE,3.5,-,0.03,Rain,Rain,30,2012-12-08 11:31:00
6:43 AM,37.4,35.6,93,29.96,1.5,Calm,Calm,-,0.04,Rain,Light Rain,0,2012-12-08 11:43:00
6:53 AM,37.9,35.1,89,29.97,1.5,North,4.6,-,0.04,Rain,Light Rain,360,2012-12-08 11:53:00
7:00 AM,37.4,35.6,93,29.95,5.0,North,4.6,-,0.00,Rain,Light Rain,360,2012-12-08 12:00:00
7:03 AM,37.4,35.6,93,29.95,1.0,North,4.6,-,0.00,Rain,Light Rain,10,2012-12-08 12:03:00
7:53 AM,37.9,36.0,93,29.95,1.0,North,4.6,-,0.01,Rain,Light Rain,360,2012-12-08 12:53:00
7:56 AM,37.4,35.6,93,29.94,2.0,North,4.6,-,0.00,Rain,Light Rain,350,2012-12-08 12:56:00
8:32 AM,37.4,35.6,93,29.95,1.0,North,6.9,-,0.01,Rain,Light Rain,10,2012-12-08 13:32:00
8:53 AM,37.9,35.1,89,29.96,1.0,NNE,6.9,-,0.02,Rain,Light Rain,30,2012-12-08 13:53:00
9:53 AM,39.9,37.0,89,29.96,1.0,North,3.5,-,0.01,,Overcast,10,2012-12-08 14:53:00
10:53 AM,39.9,37.0,89,29.94,1.0,North,6.9,-,0.00,Rain,Light Rain,360,2012-12-08 15:53:00
11:53 AM,41.0,37.9,89,29.91,1.0,North,4.6,-,0.00,,Overcast,10,2012-12-08 16:53:00
12:53 PM,42.1,39.0,89,29.88,1.0,NE,3.5,-,N/A,,Overcast,40,2012-12-08 17:53:00
1:00 PM,42.8,39.2,87,29.86,6.0,NNE,3.5,-,N/A,,Overcast,20,2012-12-08 18:00:00
1:53 PM,43.0,39.9,89,29.88,8.0,North,3.5,-,N/A,,Overcast,350,2012-12-08 18:53:00
2:05 PM,42.8,39.2,87,29.87,8.0,North,4.6,-,N/A,,Overcast,360,2012-12-08 19:05:00
2:31 PM,42.8,39.2,87,29.87,10.0,Calm,Calm,-,N/A,,Overcast,0,2012-12-08 19:31:00
2:53 PM,43.0,39.9,89,29.89,10.0,Calm,Calm,-,N/A,,Overcast,0,2012-12-08 19:53:00
3:53 PM,43.0,39.9,89,29.88,10.0,Calm,Calm,-,N/A,,Overcast,0,2012-12-08 20:53:00
4:53 PM,43.0,39.9,89,29.90,10.0,Calm,Calm,-,N/A,,Overcast,0,2012-12-08 21:53:00
5:53 PM,42.1,39.9,92,29.91,7.0,Calm,Calm,-,N/A,,Overcast,0,2012-12-08 22:53:00
6:44 PM,42.8,39.2,87,29.90,1.8,SSE,3.5,-,N/A,,Overcast,150,2012-12-08 23:44:00
6:53 PM,42.1,39.9,92,29.92,0.8,SSE,3.5,-,N/A,,Mist,160,2012-12-08 23:53:00
7:53 PM,43.0,41.0,93,29.93,0.5,Calm,Calm,-,N/A,Fog,Fog,0,2012-12-09 00:53:00
7:57 PM,42.8,41.0,93,29.92,0.2,Calm,Calm,-,N/A,Fog,Fog,0,2012-12-09 00:57:00
8:53 PM,43.0,41.0,93,29.94,0.2,Calm,Calm,-,N/A,Fog,Fog,0,2012-12-09 01:53:00
9:53 PM,43.0,41.0,93,29.96,0.2,Calm,Calm,-,N/A,Fog,Fog,0,2012-12-09 02:53:00
10:53 PM,42.1,39.9,92,29.98,0.2,SSW,3.5,-,N/A,Fog,Fog,200,2012-12-09 03:53:00
11:18 PM,42.8,39.2,87,29.96,0.2,Calm,Calm,-,N/A,Fog,Fog,0,2012-12-09 04:18:00
11:53 PM,41.0,39.0,93,29.99,0.2,Calm,Calm,-,0.01,Fog,Fog,0,2012-12-09 04:53:00